星链-1245 (STARLINK-1245 )

导读 | 豆包AI

STARLINK-1245是美国SpaceX星链卫星互联网项目的卫星,于2020年2月17日发射。星链计划旨在构建全球卫星互联网星座,为全球提供高速互联网服务,尤其覆盖偏远地区。STARLINK-1245是星链早期组网的组成部分,在低轨轨道运行,参与全球通信网络的搭建,推动了低轨卫星通信产业发展。

基本信息
目录编号:
45215
目录名称:
STARLINK-1245
国际标识:
2020-012AP
轨道中心:
EARTH
卫星名称:
星链-1245
卫星全名:
星链-1245 (STARLINK-1245 )
卫星状态:
已陨落 最后检测时间 2024-06-25
发射日期:
2020-02-17 UTC
国别 :
美国 (US)
星等 :
--
轨道信息
数据来源 国际轨道数据
星历时间: 2024-06-25T04:02:08+0800
轨道信息已过期627天
半长轴: 6594.953km
偏心率: 0.0009599
轨道倾角: 53.036°
近地点辐角 338.933°
升交点赤经 243.238°
平近点角 156.653°
近地点: 210.487km
远地点: 223.149km
周期: 88.834分钟
每日圈数: 16.210083
详细信息
固有亮度:
5
最大亮度:
2.5
卫星平台:
Starlink V1.0
覆盖范围:
全球
运营商:
太空探索技术公司
运营商所在国:
美国
制造商(研发单位):
太空探索技术公司
制造商所在国:
美国
使用方式:
暂无
卫星简介
星链(Starlink)计划是由太空探索技术公司(SpaceX)提出的一个巨型低轨卫星互联网星座项目,计划在2019年至2024年间在太空搭建由约1.2万颗卫星组成的“星链”网络,其中1584颗将部署在地球上空550千米处的近地轨道,并从2020年开始工作。该卫星已陨落。